EW9744 Weather Reports


Display with metric or nautical units.
time (UTC)temp
F
wind
direction
speed
MPH
gust
MPH
rain 1hr
in
rain 24hr
in
rain mn
in
humidity
%
barometer
mb
20260903203031 60 40 2.0 7.0 0.00 0.32 0.01 71 1012.6
20260903201530 60 60 2.0 6.0 0.00 0.33 0.01 74 1012.8
20260903200030 59 41 2.0 5.0 0.00 0.34 0.01 76 1013.0
20260903194532 59 90 2.0 7.0 0.00 0.34 0.01 77 1013.0
20260903193030 58 20 3.0 7.0 0.00 0.34 0.01 81 1013.2
20260903191604 56 20 3.0 7.0 0.00 0.35 0.01 82 1013.4
20260903190031 57 22 4.0 8.0 0.00 0.35 0.01 84 1013.5
20260903184529 56 23 3.0 7.0 0.00 0.35 0.01 88 1013.6
20260903183030 55 40 4.0 9.0 0.00 0.35 0.01 91 1013.5
20260903181533 54 91 3.0 10.0 0.00 0.35 0.01 93 1013.5
20260903180031 54 64 3.0 8.0 0.00 0.35 0.01 95 1013.5
20260903174529 52 60 3.0 7.0 0.00 0.35 0.01 96 1013.4
20260903173105 52 49 4.0 10.0 0.00 0.35 0.01 96 1013.4
20260903171530 51 43 4.0 9.0 0.00 0.35 0.01 97 1013.4
20260903170147 50 9 2.0 5.0 0.00 0.35 0.01 97 1013.5
20260903164528 50 96 0.0 4.0 0.00 0.35 0.01 97 1013.6
20260903161531 50 24 0.0 4.0 0.00 0.35 0.01 97 1013.4
20260903154530 49 314 0.0 3.0 0.00 0.35 0.01 98 1013.4
20260903153030 49 50 0.0 2.0 0.00 0.35 0.01 98 1013.4
20260903151530 48 62 0.0 0.0 0.00 0.35 0.01 98 1013.4
20260903150030 48 85 0.0 4.0 0.00 0.35 0.01 98 1013.3
20260903144532 47 315 1.0 2.0 0.00 0.35 0.01 98 1013.2
20260903143106 46 335 2.0 4.0 0.00 0.35 0.01 98 1013.1
20260903141532 45 282 2.0 5.0 0.00 0.35 0.01 97 1013.0
20260903140032 45 270 4.0 6.0 0.00 0.35 0.01 97 1012.9
20260903134607 45 250 3.0 5.0 0.00 0.35 0.01 97 1012.9
20260903133031 45 292 1.0 3.0 0.00 0.35 0.01 97 1012.7
20260903131529 45 292 3.0 5.0 0.00 0.35 0.01 97 1012.5
20260903130030 45 309 3.0 5.0 0.00 0.35 0.01 97 1012.5
20260903124529 45 298 4.0 5.0 0.00 0.35 0.01 97 1012.5
20260903123107 45 292 4.0 4.0 0.00 0.35 0.01 97 1012.6
20260903121529 45 296 3.0 5.0 0.00 0.35 0.01 97 1012.6
20260903120030 45 297 3.0 5.0 0.00 0.35 0.01 97 1012.6
20260903114607 45 292 3.0 5.0 0.00 0.35 0.01 97 1012.7
20260903113030 45 278 3.0 5.0 0.00 0.35 0.01 97 1012.6
20260903111530 45 270 3.0 5.0 0.00 0.35 0.01 96 1012.5
20260903110031 46 290 2.0 5.0 0.00 0.35 0.01 96 1012.4
20260903103031 47 299 3.0 4.0 0.00 0.35 0.01 96 1012.2
20260903101530 47 304 3.0 5.0 0.00 0.35 0.01 96 1012.1
20260903100030 48 293 3.0 5.0 0.00 0.35 0.01 96 1012.1
20260903094531 48 265 3.0 6.0 0.00 0.35 0.01 97 1012.3
20260903093032 47 277 4.0 6.0 0.00 0.35 0.01 96 1012.2
20260903091529 47 270 3.0 5.0 0.00 0.35 0.01 96 1012.3
20260903090030 47 259 3.0 6.0 0.00 0.35 0.01 96 1012.2
20260903084529 48 292 3.0 4.0 0.00 0.35 0.01 96 1012.3
20260903083104 48 278 3.0 6.0 0.00 0.35 0.01 96 1012.2
20260903081539 48 271 3.0 5.0 0.00 0.35 0.01 96 1012.1
20260903080106 48 261 3.0 5.0 0.00 0.35 0.01 96 1012.1
20260903074533 48 299 2.0 5.0 0.01 0.35 0.01 96 1012.0
20260903073030 48 271 4.0 7.0 0.01 0.35 0.01 96 1011.7
20260903071531 48 273 4.0 6.0 0.01 0.35 0.01 96 1011.6
20260903070029 49 283 4.0 9.0 0.01 0.35 0.00 96 1011.8
20260903064529 49 239 2.0 7.0 0.00 0.34 0.34 96 1011.9
20260903063038 49 287 1.0 4.0 0.00 0.34 0.34 96 1011.9
20260903061530 49 292 3.0 5.0 0.00 0.34 0.34 96 1011.9
20260903060030 49 291 3.0 4.0 0.00 0.34 0.34 96 1011.9
20260903054531 48 302 3.0 7.0 0.00 0.34 0.34 96 1011.9
20260903053029 49 292 4.0 5.0 0.00 0.34 0.34 96 1011.8
20260903051532 49 270 3.0 5.0 0.00 0.34 0.34 95 1011.7
20260903044536 50 320 1.0 5.0 0.00 0.34 0.34 95 1011.5
20260903043030 50 280 2.0 5.0 0.00 0.34 0.34 95 1011.4
20260903040030 52 280 3.0 5.0 0.00 0.34 0.34 95 1010.9
20260903034646 53 295 3.0 7.0 0.00 0.34 0.34 95 1010.8
20260903033031 54 276 2.0 4.0 0.00 0.34 0.34 96 1010.8
20260903024531 54 180 0.0 3.0 0.07 0.34 0.34 96 1010.6
20260903023031 55 180 0.0 4.0 0.10 0.34 0.33 95 1010.5
20260903020147 55 6 2.0 6.0 0.08 0.32 0.27 95 1010.2
20260903014531 55 25 2.0 5.0 0.03 0.27 0.24 95 1009.9
20260903013031 55 90 0.0 3.0 0.01 0.24 0.24 95 1010.0
20260903011536 55 46 0.0 3.0 0.03 0.24 0.24 94 1010.0
20260903010031 55 19 0.0 3.0 0.05 0.24 0.23 94 1010.2
20260903003104 55 22 0.0 2.0 0.07 0.23 0.21 94 1010.2
20260903001529 55 22 1.0 3.0 0.06 0.21 0.19 93 1010.1
20260903000027 56 34 2.0 5.0 0.04 0.19 0.18 93 1010.0
20260902234533 56 52 1.0 5.0 0.04 0.18 0.16 92 1010.1
20260902233031 57 78 1.0 4.0 0.02 0.16 0.15 91 1010.2
20260902231530 56 63 1.0 5.0 0.02 0.15 0.15 91 1010.3
20260902230029 56 21 2.0 5.0 0.03 0.15 0.14 91 1010.4
20260902224528 56 7 2.0 6.0 0.03 0.14 0.14 91 1010.2
20260902221608 55 338 2.0 5.0 0.05 0.13 0.12 91 1010.3
20260902220030 56 351 3.0 5.0 0.06 0.12 0.11 91 1010.1
20260902214533 56 355 2.0 6.0 0.07 0.11 0.09 90 1010.0
20260902213033 57 14 2.0 6.0 0.06 0.09 0.08 90 1010.0
20260902210032 57 122 0.0 4.0 0.05 0.06 0.04 89 1010.2
20260902204532 58 112 0.0 3.0 0.03 0.04 0.03 88 1010.1